| time (UTC) | temp F | wind direction | speed MPH | gust MPH | rain 1hr in | rain 24hr in | rain mn in | humidity % | barometer mb |
| 20260502203240 | 76 | 0 | 0.0 | 0.0 | 0.00 | 0.37 | 0.00 | 59 | 1020.4 |
| 20260502202241 | 75 | 0 | 0.0 | 0.0 | 0.00 | 0.37 | 0.00 | 58 | 1020.5 |
| 20260502201241 | 75 | 0 | 0.0 | 0.0 | 0.00 | 0.39 | 0.00 | 58 | 1020.6 |
| 20260502200240 | 75 | 0 | 0.0 | 0.0 | 0.00 | 0.41 | 0.00 | 59 | 1020.7 |
| 20260502195240 | 75 | 0 | 0.0 | 0.0 | 0.00 | 0.42 | 0.00 | 58 | 1020.7 |
| 20260502194240 | 75 | 0 | 0.0 | 0.0 | 0.00 | 0.42 | 0.00 | 58 | 1020.7 |
| 20260502193239 | 74 | 0 | 0.0 | 0.0 | 0.00 | 0.42 | 0.00 | 61 | 1020.8 |
| 20260502192240 | 74 | 0 | 0.0 | 0.0 | 0.00 | 0.42 | 0.00 | 61 | 1020.7 |
| 20260502191239 | 74 | 0 | 0.0 | 0.0 | 0.00 | 0.42 | 0.00 | 59 | 1020.7 |
| 20260502190239 | 74 | 0 | 0.0 | 0.0 | 0.00 | 0.42 | 0.00 | 61 | 1020.7 |
| 20260502185241 | 73 | 0 | 0.0 | 0.0 | 0.00 | 0.42 | 0.00 | 64 | 1020.8 |
| 20260502184239 | 74 | 0 | 0.0 | 0.0 | 0.00 | 0.42 | 0.00 | 61 | 1020.8 |
| 20260502183240 | 73 | 0 | 0.0 | 0.0 | 0.00 | 0.42 | 0.00 | 64 | 1021.1 |
| 20260502182240 | 73 | 0 | 0.0 | 0.0 | 0.00 | 0.42 | 0.00 | 63 | 1021.0 |
| 20260502181241 | 74 | 0 | 0.0 | 0.0 | 0.00 | 0.42 | 0.00 | 63 | 1021.2 |
| 20260502180240 | 72 | 0 | 0.0 | 0.0 | 0.00 | 0.42 | 0.00 | 65 | 1021.3 |
| 20260502170251 | 69 | 0 | 0.0 | 0.0 | 0.00 | 0.42 | 0.00 | 70 | 1021.6 |
| 20260502164240 | 68 | 0 | 0.0 | 0.0 | 0.00 | 0.43 | 0.00 | 74 | 1021.6 |
| 20260502163241 | 68 | 0 | 0.0 | 0.0 | 0.00 | 0.43 | 0.00 | 75 | 1021.6 |
| 20260502162240 | 68 | 0 | 0.0 | 0.0 | 0.00 | 0.43 | 0.00 | 79 | 1021.5 |
| 20260502161240 | 67 | 0 | 0.0 | 0.0 | 0.00 | 0.43 | 0.00 | 78 | 1021.4 |
| 20260502160239 | 65 | 0 | 0.0 | 0.0 | 0.00 | 0.43 | 0.00 | 83 | 1021.3 |
| 20260502152241 | 63 | 0 | 0.0 | 0.0 | 0.00 | 0.43 | 0.00 | 88 | 1021.0 |
| 20260502151239 | 63 | 0 | 0.0 | 0.0 | 0.00 | 0.43 | 0.00 | 89 | 1020.8 |
| 20260502150240 | 61 | 0 | 0.0 | 0.0 | 0.00 | 0.43 | 0.00 | 90 | 1020.6 |
| 20260502130239 | 59 | 0 | 0.0 | 0.0 | 0.00 | 0.44 | 0.00 | 97 | 1019.2 |
| 20260502123241 | 58 | 0 | 0.0 | 0.0 | 0.00 | 0.44 | 0.00 | 97 | 1019.0 |
| 20260502122241 | 59 | 0 | 0.0 | 0.0 | 0.00 | 0.44 | 0.00 | 98 | 1018.7 |
| 20260502121240 | 58 | 0 | 0.0 | 0.0 | 0.00 | 0.44 | 0.00 | 98 | 1018.5 |
| 20260502120240 | 58 | 0 | 0.0 | 0.0 | 0.00 | 0.44 | 0.00 | 98 | 1018.3 |
| 20260502114241 | 58 | 0 | 0.0 | 0.0 | 0.00 | 0.44 | 0.00 | 98 | 1018.2 |
| 20260502113241 | 58 | 0 | 0.0 | 0.0 | 0.00 | 0.44 | 0.00 | 98 | 1018.2 |
| 20260502112240 | 58 | 0 | 0.0 | 0.0 | 0.00 | 0.44 | 0.00 | 98 | 1018.2 |
| 20260502111241 | 58 | 0 | 0.0 | 0.0 | 0.00 | 0.44 | 0.00 | 98 | 1018.3 |
| 20260502110241 | 58 | 0 | 0.0 | 0.0 | 0.00 | 0.44 | 0.00 | 98 | 1018.2 |
| 20260502105241 | 58 | 0 | 0.0 | 0.0 | 0.00 | 0.44 | 0.00 | 98 | 1018.2 |
| 20260502104241 | 58 | 0 | 0.0 | 0.0 | 0.00 | 0.44 | 0.00 | 98 | 1018.1 |
| 20260502103241 | 58 | 0 | 0.0 | 0.0 | 0.00 | 0.44 | 0.00 | 98 | 1018.2 |
| 20260502102241 | 58 | 0 | 0.0 | 0.0 | 0.00 | 0.44 | 0.00 | 98 | 1017.9 |
| 20260502101241 | 59 | 0 | 0.0 | 0.0 | 0.00 | 0.44 | 0.00 | 98 | 1017.7 |
| 20260502100241 | 58 | 0 | 0.0 | 0.0 | 0.00 | 0.44 | 0.00 | 98 | 1017.7 |
| 20260502091241 | 59 | 0 | 0.0 | 0.0 | 0.00 | 0.44 | 0.00 | 98 | 1017.4 |
| 20260502090241 | 59 | 0 | 0.0 | 0.0 | 0.00 | 0.44 | 0.00 | 98 | 1017.3 |
| 20260502071240 | 60 | 0 | 0.0 | 0.0 | 0.00 | 0.44 | 0.00 | 96 | 1016.9 |
| 20260502070240 | 60 | 0 | 0.0 | 0.0 | 0.00 | 0.44 | 0.00 | 96 | 1016.7 |
| 20260502065241 | 60 | 0 | 0.0 | 0.0 | 0.00 | 0.44 | 0.00 | 96 | 1016.7 |
| 20260502064241 | 61 | 0 | 0.0 | 0.0 | 0.00 | 0.44 | 0.00 | 97 | 1016.7 |
| 20260502063241 | 61 | 0 | 0.0 | 0.0 | 0.00 | 0.44 | 0.00 | 97 | 1016.7 |
| 20260502062241 | 60 | 0 | 0.0 | 0.0 | 0.00 | 0.44 | 0.00 | 97 | 1016.5 |
| 20260502061242 | 61 | 0 | 0.0 | 0.0 | 0.00 | 0.44 | 0.00 | 97 | 1016.3 |
| 20260502060241 | 61 | 0 | 0.0 | 0.0 | 0.00 | 0.44 | 0.00 | 97 | 1016.1 |
| 20260502055242 | 61 | 0 | 0.0 | 0.0 | 0.00 | 0.44 | 0.00 | 97 | 1016.0 |
| 20260502054241 | 61 | 0 | 0.0 | 0.0 | 0.00 | 0.44 | 0.00 | 97 | 1016.0 |
| 20260502053242 | 62 | 0 | 0.0 | 0.0 | 0.00 | 0.44 | 0.00 | 97 | 1015.8 |
| 20260502052241 | 62 | 0 | 0.0 | 0.0 | 0.00 | 0.44 | 0.00 | 97 | 1015.8 |
| 20260502051241 | 62 | 0 | 0.0 | 0.0 | 0.00 | 0.44 | 0.00 | 97 | 1015.7 |
| 20260502050245 | 61 | 0 | 0.0 | 0.0 | 0.00 | 0.44 | 0.00 | 97 | 1015.6 |
| 20260502045241 | 62 | 0 | 0.0 | 0.0 | 0.00 | 0.44 | 0.27 | 97 | 1015.4 |
| 20260502044241 | 62 | 0 | 0.0 | 0.0 | 0.00 | 0.44 | 0.27 | 97 | 1015.2 |
| 20260502043241 | 62 | 0 | 0.0 | 0.0 | 0.00 | 0.44 | 0.27 | 97 | 1015.1 |
| 20260502042240 | 62 | 0 | 0.0 | 0.0 | 0.00 | 0.44 | 0.27 | 97 | 1014.8 |
| 20260502041241 | 62 | 0 | 0.0 | 0.0 | 0.00 | 0.44 | 0.27 | 97 | 1014.8 |
| 20260502040242 | 62 | 0 | 0.0 | 0.0 | 0.00 | 0.44 | 0.27 | 97 | 1014.7 |
| 20260502035241 | 63 | 0 | 0.0 | 0.0 | 0.00 | 0.44 | 0.27 | 97 | 1014.5 |
| 20260502034242 | 63 | 0 | 0.0 | 0.0 | 0.00 | 0.44 | 0.27 | 97 | 1014.5 |
| 20260502033240 | 63 | 0 | 0.0 | 0.0 | 0.00 | 0.44 | 0.27 | 97 | 1014.3 |
| 20260502032240 | 63 | 0 | 0.0 | 0.0 | 0.00 | 0.44 | 0.27 | 97 | 1014.0 |
| 20260502031241 | 63 | 0 | 0.0 | 0.0 | 0.00 | 0.44 | 0.27 | 97 | 1013.8 |
| 20260502030241 | 63 | 0 | 0.0 | 0.0 | 0.00 | 0.44 | 0.27 | 97 | 1013.2 |
| 20260502025240 | 63 | 0 | 0.0 | 0.0 | 0.00 | 0.44 | 0.27 | 97 | 1012.9 |
| 20260502024240 | 63 | 0 | 0.0 | 0.0 | 0.00 | 0.44 | 0.27 | 97 | 1012.6 |
| 20260502023240 | 63 | 0 | 0.0 | 0.0 | 0.00 | 0.44 | 0.27 | 97 | 1012.4 |
| 20260502022242 | 63 | 0 | 0.0 | 0.0 | 0.00 | 0.44 | 0.27 | 97 | 1012.3 |
| 20260502021241 | 64 | 0 | 0.0 | 0.0 | 0.00 | 0.44 | 0.27 | 97 | 1012.1 |
| 20260502020240 | 64 | 0 | 0.0 | 0.0 | 0.00 | 0.44 | 0.27 | 97 | 1012.0 |
| 20260502015240 | 64 | 0 | 0.0 | 0.0 | 0.00 | 0.44 | 0.27 | 97 | 1011.8 |
| 20260502014240 | 64 | 0 | 0.0 | 0.0 | 0.00 | 0.44 | 0.27 | 97 | 1011.6 |
| 20260502013240 | 64 | 0 | 0.0 | 0.0 | 0.01 | 0.44 | 0.27 | 97 | 1011.5 |
| 20260502012241 | 63 | 0 | 0.0 | 0.0 | 0.01 | 0.44 | 0.27 | 97 | 1011.4 |
| 20260502011240 | 64 | 0 | 0.0 | 0.0 | 0.01 | 0.44 | 0.27 | 97 | 1011.3 |
| 20260502010240 | 64 | 0 | 0.0 | 0.0 | 0.01 | 0.44 | 0.27 | 97 | 1011.2 |
| 20260502005241 | 64 | 0 | 0.0 | 0.0 | 0.01 | 0.44 | 0.27 | 97 | 1011.1 |
| 20260502004240 | 64 | 0 | 0.0 | 0.0 | 0.01 | 0.44 | 0.27 | 98 | 1010.9 |
| 20260502003240 | 64 | 0 | 0.0 | 0.0 | 0.00 | 0.43 | 0.26 | 97 | 1010.8 |
| 20260502002240 | 65 | 0 | 0.0 | 0.0 | 0.00 | 0.43 | 0.26 | 98 | 1010.6 |
| 20260502001240 | 65 | 0 | 0.0 | 0.0 | 0.11 | 0.43 | 0.26 | 98 | 1010.4 |
| 20260502000242 | 64 | 0 | 0.0 | 0.0 | 0.15 | 0.43 | 0.26 | 98 | 1010.4 |
| 20260501235241 | 65 | 0 | 0.0 | 0.0 | 0.15 | 0.43 | 0.26 | 98 | 1010.2 |
| 20260501234242 | 65 | 0 | 0.0 | 0.0 | 0.15 | 0.43 | 0.26 | 98 | 1010.0 |
| 20260501233240 | 65 | 0 | 0.0 | 0.0 | 0.15 | 0.43 | 0.26 | 99 | 1009.8 |
| 20260501232241 | 65 | 0 | 0.0 | 0.0 | 0.15 | 0.43 | 0.26 | 99 | 1009.8 |
| 20260501230240 | 66 | 0 | 0.0 | 0.0 | 0.21 | 0.32 | 0.32 | 98 | 1009.2 |
| 20260501225241 | 67 | 0 | 0.0 | 0.0 | 0.01 | 0.11 | 0.11 | 98 | 1008.4 |
| 20260501224240 | 67 | 0 | 0.0 | 0.0 | 0.02 | 0.11 | 0.11 | 98 | 1007.1 |
| 20260501223241 | 67 | 0 | 0.0 | 0.0 | 0.02 | 0.11 | 0.11 | 98 | 1007.1 |
| 20260501222240 | 67 | 0 | 0.0 | 0.0 | 0.02 | 0.11 | 0.11 | 98 | 1007.6 |
| 20260501221241 | 67 | 0 | 0.0 | 0.0 | 0.02 | 0.11 | 0.11 | 98 | 1007.7 |
| 20260501220241 | 66 | 0 | 0.0 | 0.0 | 0.02 | 0.11 | 0.11 | 98 | 1008.1 |
| 20260501215241 | 67 | 0 | 0.0 | 0.0 | 0.02 | 0.10 | 0.10 | 98 | 1007.9 |
| 20260501214241 | 67 | 0 | 0.0 | 0.0 | 0.01 | 0.09 | 0.09 | 98 | 1008.4 |
| 20260501213241 | 68 | 0 | 0.0 | 0.0 | 0.01 | 0.09 | 0.09 | 98 | 1007.7 |
| 20260501212241 | 68 | 0 | 0.0 | 0.0 | 0.02 | 0.09 | 0.09 | 98 | 1007.6 |
| 20260501211241 | 67 | 0 | 0.0 | 0.0 | 0.02 | 0.09 | 0.09 | 98 | 1007.8 |
| 20260501210240 | 68 | 0 | 0.0 | 0.0 | 0.02 | 0.09 | 0.09 | 97 | 1007.7 |
| 20260501205241 | 68 | 0 | 0.0 | 0.0 | 0.01 | 0.08 | 0.08 | 97 | 1007.9 |
| 20260501204241 | 68 | 0 | 0.0 | 0.0 | 0.04 | 0.08 | 0.08 | 97 | 1008.0 |